STARLINK-32851, 62810

Orbit data source: Space-Track

STARLINK-32851, 62810 is a payload satellite owned by SpaceX/Seattle (US) in LEO that was launched on Fri, 24 Jan 2025 UTC via an FALCON 9 launch vehicle from the Air Force Western Test Range (AFWTR). Payload-class satellites include a variety of spacecraft equipped with specific instruments for various scientific and technological missions. These include communications satellites like Starlink; space stations such as the ISS; scientific satellites like the Hubble; Earth observation satellites from companies like Planet Labs, Umbra, and HawkEye 360; GPS; miniature CubeSats for education and research; and military/defense satellites.

Loading next visibility...
Identifier
62810, 2025-018E
Orbit
LEO
Last TLE update
21 hours ago
Origin
Manufacturer
SpaceX/Seattle
Mission
Operational Commercial Communications
Bus & Motor
STARLINK V2M, Unknown motor
Mass
730 kg wet, ~700 kg dry
Launch date (UTC)
2025-01-24 (5 months ago)
Launch vehicle
FALCON 9
Launch site
Air Force Western Test Range (AFWTR)
Object type
Payload
Rocket body
Debris
Shape & HBR
Box + 2 Pan, 29 m
Radar Cross Section
33.884 m², Large (>1 m²)

Expand to show TLE details & history

TLE from 21 hours ago
0 STARLINK-32851
1 62810U 25018E   25185.84873981  .00013649  00000-0  47209-3 0  9990
2 62810  53.1590  20.7450 0001071  99.5319 260.5803 15.30200148 25224
Epoch: 2025-07-04T20:22Z
TLE epoch observation values (Epoch: 2025-07-04T20:22:11.119Z)
Latitude
-0.00001°
Longitude
152.10342°
Altitude
476.234 km
Speed
7.629 km/s
True Right ascension
01h 22m 58s
True Declination
0° 00' 00"
Sunlit
Object was in daylight at epoch
Visualization orbit readout
Latitude
36.92754°
Longitude
-177.82855°
Altitude
477.665 km
Speed
7.632 km/s
Apparent Right ascension
23h 11m 53s
Apparent Declination
0° 44' 27"
Sunlit
Object is in daylight
Visualization observer readout
Local Sidereal Time
04:52:47
Azimuth
267.5° W
Elevation
4.137°
Doppler factor
1
Orbital elements
Apogee altitude
476.205 km
Perigee altitude
474.737 km
Semi-major axis
6,853.608 km
Eccentricity
0.00011
Inclination
53.159°
RAAN
20.745°
Arg. of periapsis
99.5319°
True anomaly
Unknown
Mean anomaly
260.5803°
Eccentric anomaly
Unknown
Mean motion
3.82529 °/min
Orbital period
94.11 mins
BSTAR
0.00047209
Loading maneuver chart data...
Loading SW <> Apogee altitude chart data...
Loading historical data...
Loading historical data...
Loading historical data...
Loading historical data...
Loading historical data...
Loading historical data...
Loading historical data...

STARLINK-32851 Visibility forecast

Observer location: undefined°, undefined°

Span
Click to sort rows by Start time (UTC) header in descending order
Start Az.
Max El. time (UTC)
Max El. Az.
Max El.
End time (UTC)
End Az.
5 mins2025-07-05 16:59:29.869Z283.667° WNW2025-07-05 17:01:29.869Z322.344° NNW21.859°2025-07-05 17:04:29.869Z24.833° NE
5 mins2025-07-05 21:56:29.869Z328.464° NNW2025-07-05 21:58:29.869Z19.705° NNE35.039°2025-07-05 22:01:29.869Z104.811° ESE
5 mins2025-07-06 14:52:29.869Z193.097° SSW2025-07-06 14:54:29.869Z123.557° SE34.391°2025-07-06 14:57:29.869Z63.27° ENE
4 mins2025-07-06 16:30:29.869Z287.928° WNW2025-07-06 16:32:29.869Z337.199° NNW23.98°2025-07-06 16:34:29.869Z20.76° NNE
|